GFSFLT2_850_dewp_237.txt.gz
Dewpoint
5 6 8 9 9 9 10 9 9 8 6 5 4 3 2 0 -4 -5 -5 -5 -4 -3 -1 2 3 2 2 3 4 5 6 7
5 5 7 8 8 9 9 9 8 6 4 3 3 4 4 4 1 -2 -4 -4 -4 -3 -2 -1 4 5 4 4 4 5 5 5
8 5 5 5 5 5 6 6 6 5 5 5 5 6 6 6 5 3 1 -2 -2 -2 -1 -1 1 6 7 7 6 5 5 6
10 8 5 5 5 5 5 6 6 6 7 7 7 7 7 7 7 7 6 4 2 1 1 4 7 5 5 8 9 8 7 5
6 9 6 6 5 6 7 7 7 7 8 7 7 8 9 9 9 9 9 8 6 5 5 9 10 10 10 9 8 7 8 8
6 6 7 6 7 7 7 7 7 8 8 8 11 11 11 11 11 11 11 9 9 9 10 11 11 12 12 12 11 10 10 10
8 8 7 7 7 7 7 8 9 9 9 12 12 12 12 12 11 11 11 11 12 11 11 11 12 12 12 12 12 12 11 11
10 9 9 9 9 9 9 9 9 11 12 12 12 12 11 12 12 11 11 11 12 12 13 13 12 12 12 12 12 12 12 11
11 11 12 12 12 11 10 10 12 12 12 13 13 12 11 11 11 11 11 10 11 13 13 13 13 12 12 12 12 12 11 12
12 13 13 12 12 12 13 12 12 12 12 12 12 11 11 11 11 10 11 11 13 12 12 12 12 12 12 12 11 11 11 11
13 14 14 12 12 12 13 12 12 11 12 12 11 11 10 10 10 9 8 7 6 5 3 2 1 3 6 6 5 7 7 8
14 14 14 13 13 14 13 13 12 11 12 11 8 5 1 -2 -4 -5 -5 -5 -5 -5 -5 -4 -3 -2 -3 -2 -5 -7 -8 -6
14 14 15 14 13 13 13 12 11 11 6 -1 -7 -10 -11 -11 -12 -12 -12 -11 -10 -9 -6 -3 -2 0 3 5 3 2 -1 1
11 14 14 14 13 13 11 11 8 3 -4 -8 -9 -10 -14 -17 -18 -19 -17 -13 -11 -7 -3 -1 0 0 2 4 3 2 5 3
12 15 14 14 14 12 11 9 1 -6 -8 -10 -15 -20 -21 -22 -20 -16 -13 -11 -10 -9 -7 -4 -4 -5 -5 1 3 2 4 3
13 14 14 14 13 11 10 3 -6 -10 -17 -22 -24 -23 -20 -16 -14 -12 -11 -10 -9 -11 -9 -8 -9 -10 -12 -12 -11 -6 3 -0
13 14 13 13 10 4 -2 -7 -16 -19 -22 -23 -22 -18 -15 -13 -11 -10 -11 -11 -11 -11 -11 -11 -11 -11 -13 -12 -11 -8 -1 1
13 13 10 6 -4 -10 -12 -14 -17 -20 -22 -19 -16 -14 -12 -10 -10 -10 -10 -10 -10 -9 -9 -9 -9 -9 -10 -10 -10 -6 -3 -1
10 9 3 -7 -9 -10 -11 -14 -16 -18 -19 -19 -16 -13 -11 -11 -11 -10 -10 -10 -10 -9 -8 -7 -7 -7 -8 -8 -8 -9 -8 -7
5 0 -2 -7 -7 -9 -11 -12 -14 -18 -20 -18 -15 -14 -13 -12 -12 -12 -12 -12 -11 -10 -9 -9 -8 -8 -7 -8 -9 -9 -7 -6

GFSFLT2_850_dewp_240.txt.gz
Dewpoint
7 9 10 11 11 10 10 10 10 10 8 7 5 4 3 0 -3 -4 -4 -4 -3 -2 -0 1 4 4 3 3 3 4 6 10
7 9 10 10 10 10 10 10 10 9 8 7 7 6 6 5 3 -1 -3 -3 -2 -1 0 1 2 5 6 6 5 4 8 10
6 7 9 10 10 10 11 11 11 10 9 8 8 12 9 7 7 4 2 0 -1 -1 -0 1 2 4 6 8 8 10 11 10
7 7 10 12 14 11 11 11 11 11 11 8 13 10 12 8 8 8 7 6 4 3 2 4 7 12 11 8 10 11 11 11
9 8 6 7 10 8 9 9 9 9 13 11 10 8 8 12 13 12 12 9 12 10 10 11 12 13 13 13 13 12 12 11
9 10 8 7 7 7 7 7 8 10 13 10 9 11 11 12 13 13 11 13 11 12 13 13 12 12 12 12 13 13 13 12
7 9 9 7 7 7 7 7 8 9 10 9 13 13 13 12 12 13 13 13 13 13 13 13 13 12 11 11 11 11 12 12
8 8 8 8 8 8 8 8 12 12 13 13 12 12 12 11 11 11 11 11 12 13 13 12 12 12 13 12 12 12 11 11
9 9 9 9 8 9 10 13 13 13 12 11 12 11 11 11 11 10 11 11 11 11 11 12 13 12 11 12 11 11 12 12
11 11 10 10 12 12 13 13 12 12 12 12 13 12 11 11 11 10 11 11 11 10 9 10 10 9 8 8 8 9 9 9
13 12 12 12 12 13 13 13 13 12 12 12 12 12 11 11 10 8 5 2 -1 -4 3 3 5 4 4 2 3 3 2 1
15 13 13 13 14 14 13 12 11 12 11 12 11 10 8 4 -3 -13 -10 2 5 5 5 6 6 6 5 3 4 3 3 4
15 14 14 14 14 13 13 12 13 12 12 10 6 -3 -11 -13 -15 -12 -4 4 5 5 5 5 5 6 4 1 -0 -1 3 4
12 14 14 14 14 14 13 13 10 11 9 1 -8 -11 -14 -21 -21 -12 -9 4 3 3 2 1 -0 1 -0 -3 -4 -4 -2 2
12 14 14 14 14 13 13 12 10 8 -1 -9 -11 -18 -22 -20 -17 -14 -11 -3 0 -1 -5 -3 -4 -4 -1 -3 -3 -5 -3 -3
9 12 14 14 13 13 13 10 7 2 -6 -12 -21 -21 -18 -15 -15 -15 -13 -5 -3 -3 -5 -4 -2 -5 -5 -5 -2 -1 -3 -3
9 14 14 13 13 13 12 5 3 -4 -13 -21 -19 -17 -16 -17 -14 -14 -13 -4 -4 -8 -4 -4 -4 -3 -4 -4 -3 -3 -4 -4
9 14 14 14 14 12 10 5 -1 -14 -16 -5 -2 -2 -5 -13 -17 -16 -12 -11 -12 -7 -7 -2 -2 -2 -2 -2 -2 -3 -3 -4
12 14 14 14 12 9 2 -7 -15 -16 -9 -2 -3 -2 -1 -8 -18 -16 -10 -15 -12 -11 -10 -4 -0 -1 -1 -2 -2 -2 -2 -3
13 13 13 11 4 -5 -13 -14 -12 -4 -5 -6 -6 -6 -7 -21 -18 -17 -14 -11 -10 -9 -8 -3 -3 -1 -1 -0 -1 -2 -1 -2

GFSFLT2_850_dewp_246.txt.gz
Dewpoint
7 7 9 9 9 8 8 8 9 9 9 7 5 3 1 -2 -5 -6 -7 -6 -5 -4 -3 -2 -2 -1 1 2 4 3 4 9
6 7 8 10 10 9 9 9 10 10 10 9 7 5 4 3 1 -1 -3 -4 -5 -5 -4 -3 -3 -2 6 9 3 2 11 10
6 8 8 9 10 10 10 10 10 11 11 10 8 6 9 6 6 6 4 3 1 -0 -1 -1 1 7 12 11 10 11 12 11
7 7 7 9 10 10 11 11 11 11 11 10 8 12 13 13 12 9 7 7 6 5 5 5 10 12 13 12 11 13 12 11
14 10 8 9 14 11 11 11 11 11 12 10 9 13 14 13 12 11 12 11 10 12 12 12 12 13 13 13 12 12 12 12
15 15 13 13 15 14 13 12 13 13 13 13 12 14 12 11 13 13 12 12 12 12 13 13 13 13 12 13 13 13 13 13
13 15 14 14 14 15 14 13 14 14 13 13 12 13 12 12 13 12 12 13 13 13 12 13 12 12 13 13 13 13 13 12
14 14 15 14 15 15 14 13 13 10 14 14 13 13 13 12 12 13 13 13 13 12 12 12 11 12 10 10 10 8 8 8
14 12 11 13 13 13 12 14 14 11 11 13 12 12 13 12 12 12 12 11 11 12 12 11 10 9 9 7 7 5 5 4
14 14 8 8 10 12 13 12 13 13 13 13 12 13 12 12 12 12 12 11 12 12 10 8 6 5 5 5 4 4 3 3
13 14 12 9 10 12 11 13 13 13 13 13 13 12 12 12 12 12 11 11 8 6 5 5 5 4 5 5 4 -0 3 2
13 14 13 13 11 13 13 13 13 13 13 13 12 12 12 12 12 10 4 5 5 4 1 -2 1 4 4 -2 -2 -8 -3 1
13 14 14 14 14 14 14 14 14 14 14 12 12 12 12 11 9 1 2 3 3 2 -6 -4 -2 1 -4 -5 -12 -4 -4 -3
13 15 15 14 15 14 14 14 14 14 13 12 11 11 10 4 4 2 4 3 -1 -6 -13 -12 -4 -2 -4 -5 -3 -9 -4 -4
14 15 15 14 15 14 14 14 14 13 12 12 11 10 4 -5 -3 -11 -4 -0 -1 -7 -11 -9 -11 -5 -2 -3 -3 -3 -4 -5
14 15 14 14 15 14 14 14 13 12 11 10 9 6 -6 -10 -16 -13 -9 -5 -9 -7 -5 -8 -7 -6 -3 -2 -3 -2 -1 -0
13 14 14 14 14 14 14 13 12 11 10 8 6 -1 -8 -15 -13 -11 -10 -6 -8 -13 -13 -11 -10 -2 -2 -4 -1 -1 -1 -1
13 14 14 14 14 13 14 13 11 9 7 5 4 -1 -7 -8 -7 -8 -9 -11 -10 -10 -11 -11 -5 -6 -3 1 1 0 -0 -0
13 14 15 15 14 14 14 13 11 8 5 4 2 -1 -2 -3 -7 -8 -7 -5 -10 -17 -16 -14 -9 -2 -0 -1 -0 1 1 0
13 13 14 14 15 14 13 12 9 6 5 5 1 1 -1 -1 -6 -7 -11 -17 -21 -18 -16 -12 -2 -1 -2 0 1 0 1 1

GFSFLT2_850_dewp_249.txt.gz
Dewpoint
6 6 7 6 5 3 4 6 7 7 7 5 3 1 -1 -3 -5 -7 -7 -7 -6 -6 -5 -5 -4 -2 1 3 0 5 8 10
5 6 8 8 7 6 6 7 8 8 8 7 5 3 3 2 1 -1 -1 -2 -3 -4 -4 -4 -2 1 11 10 4 8 10 10
7 6 7 8 8 8 7 7 8 9 9 9 6 5 6 6 6 5 5 4 3 2 1 1 9 11 12 11 11 11 10 10
7 6 6 8 9 9 8 8 8 9 10 10 7 8 12 12 11 9 8 8 7 6 8 8 12 12 13 13 12 12 11 12
5 5 6 8 8 9 9 9 9 9 10 10 8 12 12 13 12 11 12 11 10 11 12 11 12 12 12 12 12 13 13 12
9 6 6 7 8 9 9 10 9 9 10 10 9 14 14 14 12 12 13 11 11 11 11 11 11 12 12 13 12 13 13 13
12 12 7 7 9 10 11 11 11 10 11 11 12 12 13 13 11 13 12 12 13 13 13 13 13 13 12 12 10 9 8 8
11 13 14 12 10 13 15 14 13 11 11 11 13 12 12 11 13 13 13 13 13 13 13 12 12 10 9 9 7 8 6 5
10 9 13 14 13 14 15 14 13 12 12 13 13 13 12 12 13 13 13 12 12 12 11 10 10 10 8 5 5 5 4 4
10 11 6 14 13 14 16 15 14 12 11 13 13 12 12 12 12 12 12 11 11 12 11 10 9 6 5 4 3 4 3 0
9 11 9 5 12 13 15 14 12 12 11 12 13 12 12 12 12 12 12 11 10 11 10 2 0 -1 -3 -3 -0 -4 -6 -2
9 9 11 9 7 13 13 13 12 13 12 13 13 13 13 11 12 11 10 10 9 3 0 -1 -6 -9 -8 -7 -11 -13 -6 -3
9 10 9 9 6 10 13 13 12 13 14 13 13 13 12 12 11 11 8 7 -1 -4 -3 -9 -11 -11 -10 -14 -15 -7 -4 -3
9 10 9 10 7 7 11 12 14 13 13 13 13 12 12 12 11 9 2 -2 -4 -3 -8 -14 -14 -11 -13 -12 -10 -9 -5 -4
10 10 11 11 11 9 12 14 14 14 14 13 13 12 12 11 9 7 -5 -7 -6 -7 -12 -13 -15 -15 -10 -7 -4 -4 -8 -13
10 10 11 13 13 11 10 13 14 14 14 14 12 11 10 8 6 2 -10 -9 -11 -11 -12 -15 -19 -17 -10 -5 -2 -2 -1 -1
11 11 12 14 13 13 12 13 14 14 13 13 12 10 9 5 -1 -8 -8 -11 -11 -11 -14 -18 -20 -18 -12 -10 -8 -5 -2 -0
11 13 13 14 14 13 13 13 13 14 13 12 10 9 7 -1 -8 -9 -12 -13 -11 -12 -17 -21 -22 -18 -15 -10 -4 -2 -2 0
10 14 14 15 15 14 13 13 13 13 12 11 10 9 4 -5 -11 -10 -12 -12 -13 -14 -20 -21 -20 -16 -10 -5 -4 -3 -2 -1
8 13 15 15 14 13 14 13 13 12 12 10 9 8 3 -5 -9 -9 -9 -11 -11 -19 -21 -21 -18 -12 -5 -4 -5 -4 -3 -0

GFSFLT2_850_dewp_255.txt.gz
Dewpoint
3 4 4 4 1 -6 -3 -0 1 0 -1 -3 -5 -5 -6 -7 -7 -7 -7 -6 -6 -5 -4 -3 -1 9 8 2 5 9 10 10
2 3 4 3 -0 -6 -2 1 2 3 2 -0 -2 -2 -2 -1 -1 -1 -1 -1 -2 -3 -3 -2 2 11 9 5 9 10 11 10
3 2 3 3 -0 -4 -0 2 3 5 5 3 1 0 1 1 2 3 5 5 4 3 2 6 9 11 11 11 11 11 11 11
3 3 4 3 2 -1 0 2 4 5 6 5 3 2 3 5 5 7 8 8 7 6 6 8 12 12 11 12 12 11 11 11
2 4 5 5 4 2 1 2 3 5 6 7 6 4 4 8 8 9 11 11 10 10 11 11 11 11 11 12 11 12 11 10
6 4 4 6 6 5 4 3 4 4 5 7 7 6 5 8 10 10 11 11 11 11 11 11 11 12 12 12 11 11 10 10
11 11 7 5 6 6 6 6 5 5 6 7 8 7 6 8 11 10 11 12 11 11 10 11 12 12 13 12 10 8 7 7
10 11 12 8 5 5 6 6 6 7 7 7 8 8 8 9 13 12 10 12 11 11 11 12 12 11 12 10 9 6 5 4
7 6 8 9 4 3 3 5 6 7 8 8 9 9 8 10 12 11 11 11 11 11 12 12 12 11 10 9 6 4 4 4
4 4 4 5 4 3 3 3 5 5 7 9 10 9 10 11 12 12 11 12 12 12 12 12 12 10 7 6 5 4 4 3
7 7 7 5 4 5 5 5 5 6 8 11 9 9 10 12 12 13 12 12 12 12 12 12 12 10 6 5 5 3 1 -7
8 8 8 8 7 7 7 7 6 6 10 12 10 9 10 12 12 13 13 12 13 13 12 11 11 7 3 1 -3 -5 -10 -12
10 9 9 10 10 9 6 6 8 9 12 13 12 10 10 12 12 13 13 12 12 12 11 11 9 5 -0 -6 -9 -13 -11 -7
8 9 10 10 10 9 8 7 7 10 11 13 13 11 11 12 12 13 13 12 12 12 11 9 5 -1 -7 -10 -13 -8 -8 -6
7 6 7 9 11 11 11 11 11 11 12 12 13 11 10 11 11 13 13 12 11 11 10 8 -4 -6 -11 -11 -12 -11 -10 -8
6 7 7 8 11 12 11 10 9 7 9 11 12 11 11 11 12 13 13 11 11 10 9 6 -6 -9 -11 -12 -13 -13 -15 -15
-4 -3 3 7 9 11 12 12 11 10 10 11 12 12 11 12 13 13 13 12 11 10 7 2 -7 -11 -11 -12 -13 -14 -17 -14
-2 2 -1 0 5 10 11 12 12 12 11 11 12 11 12 14 14 13 13 12 11 10 5 -4 -8 -11 -14 -13 -14 -17 -15 -11
-5 -2 -2 1 5 8 10 11 13 12 11 8 9 10 12 14 14 13 13 12 11 7 -0 -5 -10 -12 -15 -15 -17 -15 -11 -8
-3 -3 -2 0 5 6 9 13 13 13 11 9 9 9 11 13 13 13 12 11 8 5 -1 -7 -10 -14 -15 -17 -16 -13 -9 -6

GFSFLT2_850_dewp_258.txt.gz
Dewpoint
2 5 7 7 3 -1 -7 -6 -5 -5 -6 -7 -8 -9 -9 -9 -9 -8 -7 -6 -5 -4 -4 -3 4 9 6 3 5 9 10 10
3 4 6 5 3 -1 -6 -3 -2 -2 -3 -4 -4 -5 -5 -5 -5 -4 -3 -3 -3 -3 -3 -2 7 10 5 8 10 10 10 10
3 4 4 4 2 -2 -4 -1 1 1 -0 -1 -2 -2 -1 -1 0 1 3 3 3 2 1 4 5 11 10 10 11 11 11 11
2 2 2 3 1 -3 -5 -0 2 3 3 1 -0 -0 1 1 3 4 6 7 6 5 4 8 10 11 11 12 12 11 11 11
1 2 2 2 1 -2 -5 -1 1 3 4 4 3 2 1 3 4 7 9 10 10 8 9 10 11 11 11 12 11 11 10 8
2 1 3 2 2 0 -3 -3 0 2 4 5 6 5 3 3 7 8 10 11 10 11 11 11 11 11 12 12 11 10 9 8
2 2 2 3 3 3 2 -1 -1 0 3 4 6 6 6 5 7 9 10 11 11 11 11 11 11 11 11 11 11 7 6 6
7 4 3 3 2 2 3 3 2 2 2 3 5 6 7 6 8 10 11 10 12 11 11 11 11 12 12 11 10 8 6 4
8 8 8 8 7 4 3 3 4 5 4 4 5 6 8 8 7 11 12 10 12 11 11 12 12 12 11 11 10 7 2 2
7 8 8 8 8 8 5 3 3 4 5 6 7 7 8 9 8 10 11 11 11 11 11 12 12 12 11 9 7 4 2 2
6 7 7 8 10 10 9 5 4 5 5 6 7 8 9 9 9 11 11 11 11 11 11 12 12 12 12 9 5 4 3 -1
7 8 7 8 11 11 10 8 5 5 5 6 7 8 10 10 10 11 12 12 12 11 12 12 12 12 11 8 4 1 -4 -6
9 7 7 8 9 11 9 6 5 5 4 6 6 8 12 10 10 11 12 12 12 12 12 13 12 12 10 6 1 -3 -7 -9
10 9 9 8 9 9 10 9 7 6 6 5 6 8 12 10 9 10 12 13 13 13 13 12 12 11 9 4 -3 -7 -9 -7
7 8 9 8 9 11 12 12 10 9 7 6 6 8 12 12 9 10 12 13 13 13 12 12 11 10 9 -1 -10 -11 -8 -5
3 6 10 12 11 11 11 10 10 8 8 7 7 8 11 13 12 11 11 13 13 13 13 12 11 10 7 -2 -10 -11 -10 -10
-6 -2 6 9 10 12 12 12 10 11 10 9 9 9 9 12 12 11 12 13 13 13 13 12 11 9 6 -4 -10 -12 -12 -12
-3 -5 -5 1 8 11 12 12 12 13 12 11 10 9 10 11 12 10 11 12 12 12 12 12 11 8 3 -6 -12 -12 -11 -13
-2 -1 -1 -1 3 7 7 8 12 13 13 12 12 11 10 9 11 10 11 11 11 12 12 11 9 7 -0 -9 -14 -14 -14 -14
-1 -1 -1 -1 0 2 3 7 11 13 13 12 13 12 11 10 11 11 12 11 12 13 12 9 8 3 -5 -12 -15 -15 -14 -13

GFSFLT2_850_dewp_264.txt.gz
Dewpoint
6 7 8 9 10 8 3 -7 -11 -8 -7 -7 -7 -7 -7 -7 -7 -6 -5 -5 -4 -4 -3 -2 -1 0 1 2 3 6 12 11
7 7 8 9 10 9 4 -5 -11 -9 -8 -8 -8 -8 -7 -8 -7 -7 -6 -6 -5 -4 -4 -3 3 7 6 4 6 8 12 11
7 7 9 10 10 9 6 -2 -7 -8 -7 -8 -8 -8 -8 -8 -7 -6 -6 -5 -5 -4 -3 -2 4 7 6 7 8 12 12 12
6 5 7 9 12 9 6 0 -4 -5 -5 -5 -6 -0 -3 5 -3 -4 -3 -1 -1 -1 -1 0 5 11 11 9 12 13 13 12
5 5 6 7 10 10 6 5 -1 -3 -3 -3 -3 7 4 -3 3 -1 1 3 4 3 3 4 11 12 12 13 13 13 12 12
7 5 5 6 11 8 10 9 5 1 1 -1 1 1 6 6 9 8 6 9 10 10 10 10 12 13 13 13 13 13 12 11
9 7 3 3 7 11 8 10 6 1 1 -0 1 2 5 6 9 9 10 11 12 12 11 12 12 13 13 13 13 13 11 8
7 5 4 2 3 5 5 6 9 1 5 1 1 3 5 6 7 8 11 12 12 12 12 12 12 13 13 13 13 12 10 8
7 6 5 3 2 4 4 6 5 9 3 -1 0 2 4 5 7 9 11 12 13 13 13 13 13 13 13 13 12 11 10 9
12 8 7 6 4 4 6 11 8 8 9 5 -1 1 3 4 8 10 11 13 13 13 13 13 14 13 13 12 11 10 10 9
13 12 9 8 8 6 5 5 6 8 8 8 4 0 2 4 8 11 10 13 13 13 14 14 14 13 12 11 10 8 9 6
12 13 12 11 10 9 9 8 7 9 10 9 7 5 3 3 7 11 11 12 13 14 14 14 13 13 10 9 11 8 6 5
11 13 13 13 13 12 12 11 12 11 9 9 8 7 6 6 7 11 12 12 13 13 13 14 12 12 12 11 11 10 9 5
8 10 13 14 13 14 14 13 13 13 12 10 9 9 8 7 7 11 12 13 13 13 13 13 13 12 12 12 9 8 7 6
0 6 11 13 14 14 14 14 14 13 12 11 10 10 9 9 8 7 9 12 12 13 13 13 13 12 12 11 8 8 6 3
-0 -2 1 11 14 14 14 14 14 13 13 13 12 10 9 9 10 9 7 7 9 12 13 13 13 12 12 12 12 9 4 2
-2 -1 4 5 11 14 14 14 14 14 14 14 14 14 13 12 11 11 10 7 8 10 12 13 13 13 12 10 12 11 10 2
-2 -2 -1 4 7 11 14 14 13 14 14 14 14 14 15 13 13 13 12 10 9 9 12 12 12 12 11 11 12 11 10 9
-1 2 -1 -1 -0 4 10 13 13 13 13 13 14 14 14 14 14 14 14 13 12 12 12 11 13 11 12 10 12 11 10 10
-8 -7 -0 -2 -2 -1 0 4 10 11 10 11 12 13 13 14 14 14 14 14 14 14 13 10 13 12 10 10 10 12 11 11